Regional Weather Roundup
Issued by NWS Green Bay, WI

Home | Current Version | Previous Version | Graphics & Text | Print | Product List | Glossary Off
Versions: 1 2 3 4 5 6 7 8 9 10 11 12 13 14 15 16 17 18 19 20 21 22 23 24 25 26 27 28 29 30 31 32 33 34 35 36 37 38 39 40 41 42 43 44 45 46 47 48 49 50

036
ASUS43 KGRB 231701
RWRGRB

NORTH-CENTRAL AND NORTHEAST WISCONSIN REGIONAL WEATHER ROUNDUP
NATIONAL WEATHER SERVICE GREEN BAY WI
1200 PM CDT SAT SEP 23 2017

WIZ005-009-010>012-018-019-231800-
NORTH CENTRAL WISCONSIN

CITY           SKY/WX    TMP DP  RH WIND       PRES   REMARKS
IRONWOOD       SUNNY     81  70  69 W14       29.99S
MANITOWISH WTR NOT AVBL
ARBOR VITAE    NOT AVBL
EAGLE RIVER    NOT AVBL
LAND O LAKES   SUNNY     83  67  59 SW12      30.05S
RHINELANDER    SUNNY     82  69  64 SW14      30.06F
PHILLIPS       SUNNY     81  70  69 S13       30.02S
ANTIGO         NOT AVBL
TOMAHAWK       NOT AVBL
MERRILL        SUNNY     84  69  60 SW14G20   30.06F
$$

WIZ013-073-231800-
NORTHEAST WISCONSIN

CITY           SKY/WX    TMP DP  RH WIND       PRES   REMARKS
IRON MOUNTAIN  SUNNY     86  65  49 SW14      30.03S
MARINETTE      SUNNY     85  71  63 S8        30.06S HX  90
$$

WIZ017-030-035>037-045-231800-
CENTRAL WISCONSIN

CITY           SKY/WX    TMP DP  RH WIND       PRES   REMARKS
MEDFORD        NOT AVBL
WAUSAU         SUNNY     84  67  56 SW13      30.05S
MOSINEE        PTSUNNY   84  68  58 SW13G20   30.08S
MARSHFIELD     SUNNY     85  67  54 SW15      30.06S
WISC RAPIDS    SUNNY     88  68  51 W10G21    30.08S HX  91
STEVENS POINT  NOT AVBL
WAUPACA        NOT AVBL
SHAWANO        SUNNY     88  68  52 SW7       30.06S HX  91
CLINTONVILLE   NOT AVBL
WAUTOMA        SUNNY     87  70  56 W8        30.08S HX  92
$$

WIZ038-039-048-051-231800-
FOX VALLEY

CITY           SKY/WX    TMP DP  RH WIND       PRES   REMARKS
NWS GREEN BAY  SUNNY     86  69  56 S7        30.07S HX  90
APPLETON       MOSUNNY   86  63  45 SW8       30.08S
OSHKOSH        SUNNY     86  68  54 SW6       30.08S
FOND DU LAC    SUNNY     86  66  51 SW7       30.09S
$$

WIZ022-050-052-231800-
EAST CENTRAL WISCONSIN

CITY           SKY/WX    TMP DP  RH WIND       PRES   REMARKS
EPHRAIM        FAIR      85  67  56 W5        30.06F
WASHINGTON ISL NOT AVBL
STURGEON BAY   SUNNY     88  67  49 SW12      30.07F HX  91
MANITOWOC      SUNNY     84  70  62 SE9       30.09S
SHEBOYGAN      SUNNY     88  68  51 SW6       30.09F HX  91
$$

LMZ563-521-522-541>543-231800-
LAKESHORE

STATION/POSITION TIME  TEMP    WIND        PRES    VSBY  WAVE
                       AIR SEA DIR/SP/G                  HT/PER
                 (UTC) (F)     (DEG/KT/KT) (MB)    (MI)  (FT/S)
SHEBOYGAN LKSHOR 1600   73     170/ 16/ 17 1018.6R
KEWAUNEE LKSHORE 1630   66     170/ 11/ 11 1017.8S
NORTHPORT PIER   1640   76     140/  6/  8 1017.6R
N MID LAKE BUOY  1550   69 66  190/ 12/ 14 1018.5R         2/ 4
S GREEN BAY BUOY 1600   71 68  170/  6/  8 1017.9
SISTER BAY LKSHO 1619   88        CALM       N/A
MENOMINEE LKSHOR 1630   76     160/ 10/ 12 1017.4R
$$




USA.gov is the U.S. government's official web portal to all federal, state and local government web resources and services.